Content
SEND FEEDBACK

Daily
Averages
Monthly
Summary
Mexico

CORONA, TAMAULIPAS


Home > North America > Mexico > Tamaulipas
Elevation: 492 feet     Latitude: 23 56N     Longitude: 098 56W

WEATHER
 
SELECT A DAY
Number of Records: 118,892;   Date Range: 1/1/95 - 9/15/14
 
SHARE

PRINT THIS DATA

[ ← Previous Day ]
WEATHER ALMANAC - JANUARY 31, 2013
[ Next Day → ]
[ °C ]   °F
Weather ElementAverageHighLow
Temperature61.7 °F74 °F (2:50 pm)39.2 °F (6:41 am)
Dewpoint35.4 °F48 °F (8:45 pm)24.8 °F (5:58 am)
Humidity37.5 %79 % (11:45 pm)21 % (11:40 am)
Barometer30.27 in30.39 in (8:50 am)30.17 in (4:41 pm)
Wind Speed5.9 mph12.7 mph (1:40 pm)
Weather ElementAverage
Visibility6.9 mi
Wind DirectionSSE (161 °)

Weather ElementTotal
Precipitation---
Heating Degree Days8.4 (Base 65)
Growing Degree Days6.6 (Base 50)
Averaged from 23 records on January 31, 2013
WEATHER CONDITIONS BREAKOUT
WIND DIRECTION BREAKOUT
WEATHER BY HOUR - JANUARY 31, 2013
[ °C ]   °F
Local TimeTemperatureDewpointHumidityBarometerVisibilityWind DirectionWind SpeedGust SpeedPrecipitationEventsConditions
5:50 AM46.0 °F34.0 °F53 %30.34 in4.0 miSW (230°)2.2 mph
5:58 AM41.0 °F24.8 °F53 %30.30 in6.0 miSW (230°)4.6 mphScattered Clouds
6:41 AM39.2 °F24.8 °F56 %30.29 in6.0 miWest (280°)6.9 mphMostly Cloudy
7:41 AM41.0 °F26.6 °F57 %30.31 in8.0 miWest (270°)5.8 mphMostly Cloudy
8:44 AM55.4 °F26.6 °F33 %30.33 in8.0 miCalmMostly Cloudy
8:50 AM53.0 °F39.0 °F47 %30.39 in6.0 miCalmPartly Cloudy
9:40 AM59.0 °F24.8 °F27 %30.33 in8.0 miEast (100°)2.3 mphMostly Cloudy
10:42 AM64.4 °F26.6 °F24 %30.33 in8.0 miENE (70°)4.6 mphMostly Cloudy
11:40 AM68.0 °F26.6 °F21 %30.19 in8.0 miESE (120°)10.4 mphMostly Cloudy
11:50 AM68.0 °F40.0 °F24 %30.39 in6.0 miENE (70°)2.2 mphScattered Clouds
12:42 PM71.6 °F32.0 °F23 %30.25 in8.0 miSouth (180°)6.9 mphScattered Clouds
1:40 PM73.4 °F35.6 °F25 %30.21 in8.0 miSE (140°)12.7 mphScattered Clouds
2:40 PM71.6 °F35.6 °F27 %30.36 in8.0 miSouth (170°)12.7 mphScattered Clouds
2:50 PM74.0 °F47.0 °F27 %30.23 in6.0 miESE (110°)4.5 mphClear
3:45 PM73.4 °F37.4 °F27 %30.18 in8.0 miSSE (160°)11.5 mphMostly Cloudy
4:41 PM73.4 °F37.4 °F27 %30.17 in8.0 miSouth (180°)9.2 mphMostly Cloudy
5:47 PM69.8 °F37.4 °F31 %30.22 in8.0 miSouth (170°)10.4 mphMostly Cloudy
5:50 PM69.0 °F45.0 °F31 %30.22 in6.0 miSSE (160°)4.5 mphClear
6:41 PM68.0 °F37.4 °F33 %30.19 in8.0 miSSE (160°)9.2 mphMostly Cloudy
7:40 PM66.2 °F37.4 °F35 %30.21 in8.0 miSSE (160°)5.8 mphMostly Cloudy
8:42 PM62.6 °F42.8 °F48 %30.25 in6.0 miEast (100°)8.1 mphMostly Cloudy
8:45 PM60.0 °F48.0 °F55 %30.26 in4.0 miNW (320°)2.2 mphClear
11:45 PM52.0 °F47.0 °F79 %30.28 in4.0 miCalmClear
Hourly data recorded from MMCV, located miles away from Corona, Tamaulipas







STORIES FROM OUR PARTNERS